Regional Weather Roundup
Issued by NWS Newport/Morehead, NC

Current Version | Previous Version | Graphics & Text | Print | Product List | Glossary Off
Versions: 1 2 3 4 5 6 7 8 9 10 11 12 13 14 15 16 17 18 19 20 21 22 23 24 25 26 27 28 29 30 31 32 33 34 35 36 37 38 39 40 41 42 43 44 45 46 47 48 49 50

000
ASUS42 KMHX 190425
RWRMHX
WEATHER ROUNDUP FOR EASTERN NORTH CAROLINA
NATIONAL WEATHER SERVICE NEWPORT/MOREHEAD CITY NC
1100 PM EST THU JAN 18 2018

NOTE: "FAIR" INDICATES FEW OR NO CLOUDS BELOW 12,000 FEET
WITH NO SIGNIFICANT WEATHER AND/OR OBSTRUCTIONS TO VISIBILITY

NCZ015>017-031-032-045>047-102-103-190500-
NORTH COAST

CITY           SKY/WX    TMP DP  RH WIND       PRES   REMARKS
EDENTON        FAIR      33  24  71 W6        30.22S
ELIZABETH CITY FAIR      27  22  81 SW8       30.20S
KITTY HAWK     FAIR      30  24  77 MISG      30.19S
MANTEO         FAIR      30  21  69 W9        30.21S

$$

NCZ045>047-081-094-103-104-190500-
CENTRAL COAST

CITY           SKY/WX    TMP DP  RH WIND       PRES   REMARKS
FRISCO         FAIR      34  26  72 W10G20    30.23R

$$

NCZ095-097-098-100-101-190500-
SOUTHERN COAST

CITY           SKY/WX    TMP DP  RH WIND       PRES   REMARKS
BEAUFORT       FAIR      29  20  69 W7        30.26R
CEDAR ISLAND   NOT AVBL
JACKSONVILLE   FAIR      30  19  63 W6        30.26R
PINEY ISLAND   NOT AVBL
WILMINGTON     FAIR      29  20  69 W6        30.28R


$$

NCZ011>013-027>030-043-044-078>080-089-090>093-098-190500-
COASTAL PLAIN

CITY           SKY/WX    TMP DP  RH WIND       PRES   REMARKS
AHOSKIE        FAIR      25  20  81 CALM      30.21S
CLINTON        FAIR      29  23  76 CALM      30.28S
ELIZABETHTOWN  NOT AVBL
GOLDSBORO      FAIR      32  21  64 W9        30.24S
GREENVILLE     FAIR      32  23  69 W6        30.25S
HAVELOCK       NOT AVBL
KENANSVILLE    FAIR      32  19  59 W7        30.27S
KINSTON        FAIR      33  22  62 W5        30.25F
NEW BERN       FAIR      30  20  66 W7        30.25S
RICHLANDS      FAIR      29  20  69 W5        30.26S
ROCKY MOUNT    NOT AVBL
WASHINGTON     FAIR      30  21  70 W6        30.24S
WHITEVILLE     FAIR      32  18  55 W3        30.29R

$$

AMZ130-135-150-152-154-156-158-170-250-252-270-ANZ085-086-088-633-658-670-190500-
MARINE OBSERVATIONS

STATION/POSITION TIME  TEMP    WIND        PRES    WAVE   SWELL
                       AIR SEA DIR/SP/G            HT/PER HT/PER
                 (UTC) (F)     (DEG/KT/KT) (MB)    (FT/S) (FT/S)
CHESAPEAKE LIGHT NOT AVBL
64 E VA BEACH    0350   42 60  280/ 21/ 25 1021.2    7/ 6   2/10
DUCK             0400   32 39  260/ 12/ 15 1021.9
2 E DUCK         0400      39                N/A     2/ 9   2/11
OREGON INLET     0400   31 36  260/  7/ 12 1022.8
13E OREGON INLT  0348      41                N/A     5/ 8   5/ 8
HATTERAS CG      0400   35 41  280/ 17/ 19 1023.1
DIAMOND BUOY     0410   41     290/ 19/ 23 1023.4
CAPE LOOKOUT     0400          280/ 18/ 20 1024.4
BEAUFORT LAB     0400   32 44  300/  5/  8 1024.6
30 SE NEW RVR IN 0408   44 57  310/ 16/ 19 1024.6
30 SE NEW RVR IN 0400      57                N/A     4/11   2/11
27 SE WRIGHTSVLE 0408   44 60  280/ 17/ 23 1025.2
5 SE WRIGHTSVLE  0408   38 46  280/ 10/ 14 1024.9
225 S CAPE HAT   0350   55 70  300/ 10/ 14 1024.3   10/11  10/11
41 SE CHARLESTON 0410   49 69  300/ 12/ 17 1026.4

$$



USA.gov is the U.S. government's official web portal to all federal, state and local government web resources and services.